[[{"header":{"parameterUnit":"m.s-1","parameterCategory":1,"la1":30.2991,"la2":30.254,"lo1":-89.0895,"lo2":-89.0444,"dy":0.0017,"dx":0.0017,"nx":28,"ny":28,"refTime":"2023-08-31T09:00:00:Z","depth":0,"parameterNumber":2,"parameterNumberName":"U-component_of_WINDS"},"data":[0,0,0,0,0,0,0,0,0,0,0,0,0,0,0,0,0,0,0,0,0,0,0,0,0,0,0,0,0,0,0,0,0,0,0,0,0,0,0,0,0,0,0,0,0,0,0,0,0,0,0,0,0,0,0,0,0,0,-2.052,-2.052,0,-2.0493,-2.0493,-2.0493,-2.0424,-2.0423,-2.0421,-2.042,-2.0395,-2.0395,-2.0396,0,0,0,0,0,0,0,0,0,0,0,0,0,-2.0514,-2.0515,-2.052,-2.052,-2.0519,-2.0493,-2.0493,-2.0493,-2.0424,-2.0422,-2.0421,-2.0419,-2.0395,-2.0395,-2.0396,0,0,0,0,0,0,0,0,0,0,0,0,0,-2.0505,-2.0515,-2.052,-2.0482,-2.0478,-2.0493,-2.0493,-2.0493,-2.0425,-2.0422,-2.042,-2.0418,-2.0394,-2.0395,-2.0396,-2.0447,0,0,-2.04,-2.04,0,0,0,0,0,0,0,0,-2.0506,-2.0505,-2.0488,-2.0485,-2.0481,-2.046,-2.0482,-2.0477,-2.0425,-2.0445,-2.042,-2.0417,-2.0418,-2.0417,-2.0417,-2.0446,-2.0445,-2.04,-2.04,-2.0401,-2.0401,0,0,0,0,0,0,0,-2.0506,-2.0506,-2.051,-2.0488,-2.0483,-2.0467,-2.0463,-2.0481,-2.0445,-2.0443,-2.0438,-2.0436,-2.0416,-2.0416,-2.0416,-2.0444,-2.04,-2.0401,-2.0401,-2.0402,-2.0514,-2.0516,0,0,0,0,0,0,-2.0512,-2.0507,-2.051,-2.0509,-2.0488,-2.0469,-2.0465,-2.0469,-2.0444,-2.0438,-2.0438,-2.0433,-2.0416,-2.0415,-2.0415,-2.0473,-2.0401,-2.0402,-2.0402,-2.0511,-2.0514,-2.0517,0,0,0,0,0,0,-2.0512,-2.0513,-2.0511,-2.0507,-2.0505,-2.0471,-2.0476,-2.0469,-2.047,-2.044,-2.0433,-2.0445,-2.0414,-2.0413,-2.0439,-2.0471,-2.0402,-2.0403,-2.0509,-2.0512,-2.0515,-2.059,0,0,0,0,0,0,-2.0513,-2.0514,-2.0532,-2.0507,-2.0506,-2.0536,-2.0478,-2.047,-2.0471,-2.0465,-2.0445,-2.0439,-2.0412,-2.0438,-2.0441,-2.0472,-2.0404,-2.0506,-2.051,-2.0514,-2.0585,-2.0596,-2.0605,0,0,0,0,0,-2.0513,-2.0555,-2.0533,-2.0534,-2.0528,-2.0538,-2.0537,-2.0504,-2.0474,-2.0493,-2.0474,-2.044,-2.0467,-2.0441,-2.0443,-2.0475,-2.0504,-2.0509,-2.0514,-2.058,-2.0594,-2.0605,0,0,0,0,0,0,-2.0585,-2.0551,-2.0527,-2.0562,-2.0553,-2.0526,-2.0549,-2.0519,-2.052,-2.0514,-2.0473,-2.0469,-2.0501,-2.0491,-2.0463,-2.0523,-2.048,-2.0486,-2.0529,-2.0542,-2.0552,-2.0555,-2.0405,0,0,0,0,0,-2.0605,-2.0615,-2.0585,-2.0619,-2.0615,-2.0583,-2.0586,-2.0562,-2.0551,-2.0548,-2.053,-2.0523,-2.0529,-2.0535,-2.0539,-2.0582,-2.0578,-2.0605,-2.0615,-2.0624,-2.063,-2.0653,-2.0666,-2.0534,-2.0534,-2.0534,0,0,-2.0646,-2.0629,-2.0638,-2.0633,-2.0623,-2.0636,-2.0581,-2.0596,-2.0605,-2.055,-2.0574,-2.0561,-2.055,-2.0585,-2.0599,-2.0577,-2.0665,-2.0631,-2.0638,-2.0639,-2.066,-2.0672,-2.0684,-2.0538,-2.0537,-2.0536,0,0,-2.0728,-2.0716,-2.0743,-2.0734,-2.072,-2.0698,-2.0705,-2.0682,-2.0671,-2.0694,-2.0653,-2.0664,-2.0676,-2.067,-2.0668,-2.0748,-2.0718,-2.075,-2.0805,-2.0828,-2.0838,-2.0847,-2.0877,-2.0888,-2.0756,-2.0757,-2.0757,0,-2.0782,-2.0799,-2.0761,-2.0779,-2.0779,-2.0728,-2.0756,-2.075,-2.0738,-2.074,-2.0714,-2.0729,-2.0717,-2.0751,-2.077,-2.077,-2.0777,-2.0753,-2.0839,-2.0848,-2.0856,-2.0884,-2.0895,-2.0761,-2.076,-2.076,-2.0759,0,-2.0866,-2.0878,-2.0902,-2.0891,-2.0893,-2.0916,-2.0883,-2.0889,-2.0864,-2.0846,-2.087,-2.0854,-2.0855,-2.0861,-2.0837,-2.0891,-2.0878,-2.0846,-2.0802,-2.0874,-2.0899,-2.0909,-2.0767,-2.0765,-2.0764,-2.0763,0,0,-2.0995,-2.0962,-2.0972,-2.0967,-2.0947,-2.0956,-2.0977,-2.0977,-2.0984,-2.0977,-2.0995,-2.1006,-2.0977,-2.0976,-2.095,-2.097,-2.1036,-2.0936,-2.0936,-2.0957,-2.1096,-2.1121,-2.1134,-2.1015,-2.1016,-2.1018,-2.1098,0,-2.1073,-2.1107,-2.1073,-2.1114,-2.1125,-2.1077,-2.1095,-2.1086,-2.1069,-2.1076,-2.1057,-2.1066,-2.1027,-2.1025,-2.1043,-2.1024,-2.1064,-2.1018,-2.1032,-2.1033,-2.1038,-2.1147,-2.1173,-2.125,-2.1107,-2.1109,-2.111,0,-2.117,-2.1167,-2.1209,-2.1187,-2.119,-2.1207,-2.1205,-2.1212,-2.1201,-2.1187,-2.1185,-2.1154,-2.1174,-2.1129,-2.1157,-2.1127,-2.113,-2.1122,-2.1124,-2.1126,-2.1077,-2.1153,-2.1273,-2.1285,-2.1125,-2.1124,-2.1123,0,-2.1262,-2.1268,-2.1294,-2.1291,-2.1265,-2.1279,-2.1269,-2.1255,-2.1257,-2.1255,-2.1256,-2.1257,-2.1258,-2.1259,-2.123,-2.12,-2.1262,-2.1214,-2.1252,-2.1253,-2.1269,-2.1269,-2.1392,-2.1268,-2.1268,-2.1268,-2.1268,0,-2.1354,-2.1382,-2.1335,-2.1351,-2.1381,-2.1342,-2.1373,-2.1358,-2.1346,-2.136,-2.1318,-2.1331,-2.129,-2.13,-2.1276,-2.1304,-2.1304,-2.1294,-2.1288,-2.1299,-2.1301,-2.1302,-2.1297,-2.1271,-2.127,-2.127,-2.1269,0,-2.1462,-2.1432,-2.1457,-2.143,-2.1424,-2.1448,-2.1425,-2.144,-2.1419,-2.1436,-2.1438,-2.1406,-2.1415,-2.1385,-2.1389,-2.1374,-2.1414,-2.1398,-2.1418,-2.1414,-2.1454,-2.1451,-2.1585,-2.1601,-2.1465,-2.1467,-2.1468,0,-2.1524,-2.1545,-2.152,-2.1525,-2.1517,-2.1526,-2.1528,-2.149,-2.1494,-2.1483,-2.1499,-2.1504,-2.1506,-2.1523,-2.1501,-2.1504,-2.1489,-2.1535,-2.149,-2.15,-2.1492,-2.1492,-2.1494,-2.1546,-2.1548,-2.1549,-2.155,0,-2.1638,-2.1622,-2.1626,-2.1625,-2.1628,-2.1625,-2.162,-2.1627,-2.1586,-2.1593,-2.1601,-2.1603,-2.1606,-2.1613,-2.1611,-2.1601,-2.157,-2.1564,-2.1573,-2.1586,-2.1597,-2.1593,-2.1446,-2.1562,-2.1561,-2.156,-2.1559,-2.1559,-2.1726,-2.1742,-2.1727,-2.1733,-2.1725,-2.1721,-2.1733,-2.1713,-2.1719,-2.1719,-2.1696,-2.1709,-2.1697,-2.1692,-2.1685,-2.1696,-2.1674,-2.1687,-2.1691,-2.1695,-2.1703,-2.1594,-2.1695,-2.1695,-2.1694,-2.1694,-2.1694,0,-2.184,-2.1827,-2.1833,-2.1826,-2.1831,-2.1798,-2.1791,-2.1797,-2.1809,-2.18,-2.1803,-2.1813,-2.1818,-2.1796,-2.1799,-2.1812,-2.1798,-2.1814,-2.1814,-2.1812,-2.1721,-2.1713,-2.1826,-2.1826,-2.1826,-2.1826,-2.1826,-2.1826,-2.1899,-2.1925,-2.1907,-2.1928,-2.1915,-2.1927,-2.1926,-2.1922,-2.1914,-2.1927,-2.1931,-2.1916,-2.1902,-2.1904,-2.1908,-2.1901,-2.1905,-2.1927,-2.1916,-2.1832,-2.1819,-2.1807,-2.1799,-2.1928,-2.1928,-2.2007,-2.2008,-2.2008]},{"header":{"parameterUnit":"m.s-1","parameterCategory":1,"la1":30.2991,"la2":30.254,"lo1":-89.0895,"lo2":-89.0444,"dy":0.0017,"dx":0.0017,"nx":28,"ny":28,"refTime":"2023-08-31T09:00:00:Z","depth":0,"parameterNumber":3,"parameterNumberName":"V-component_of_WINDS"},"data":[0,0,0,0,0,0,0,0,0,0,0,0,0,0,0,0,0,0,0,0,0,0,0,0,0,0,0,0,0,0,0,0,0,0,0,0,0,0,0,0,0,0,0,0,0,0,0,0,0,0,0,0,0,0,0,0,0,0,-3.5879,-3.588,0,-3.5886,-3.5886,-3.5886,-3.5835,-3.5833,-3.5832,-3.583,-3.5836,-3.5837,-3.5839,0,0,0,0,0,0,0,0,0,0,0,0,0,-3.582,-3.5822,-3.5879,-3.588,-3.588,-3.5886,-3.5886,-3.5886,-3.5835,-3.5833,-3.5831,-3.583,-3.5835,-3.5837,-3.5839,0,0,0,0,0,0,0,0,0,0,0,0,0,-3.5838,-3.5822,-3.5879,-3.5855,-3.5853,-3.5886,-3.5886,-3.5886,-3.5835,-3.5833,-3.5831,-3.5829,-3.5835,-3.5837,-3.5839,-3.5896,0,0,-3.5846,-3.5847,0,0,0,0,0,0,0,0,-3.5838,-3.5841,-3.5858,-3.5857,-3.5854,-3.5857,-3.5867,-3.589,-3.5836,-3.5842,-3.583,-3.5828,-3.5845,-3.5846,-3.5852,-3.5896,-3.5897,-3.5846,-3.5847,-3.5848,-3.5849,0,0,0,0,0,0,0,-3.5836,-3.584,-3.5882,-3.5859,-3.5856,-3.5843,-3.5843,-3.5871,-3.5855,-3.5841,-3.5837,-3.5839,-3.5843,-3.585,-3.5852,-3.5897,-3.5846,-3.5848,-3.5849,-3.585,-3.5989,-3.5991,0,0,0,0,0,0,-3.5839,-3.5839,-3.5882,-3.5882,-3.584,-3.5846,-3.5846,-3.5859,-3.5855,-3.5852,-3.5841,-3.5837,-3.5847,-3.5849,-3.5852,-3.5919,-3.5848,-3.5851,-3.5852,-3.5986,-3.5989,-3.5992,0,0,0,0,0,0,-3.5838,-3.5843,-3.5882,-3.586,-3.5864,-3.5849,-3.5864,-3.586,-3.5867,-3.5855,-3.5851,-3.5851,-3.5845,-3.5848,-3.5886,-3.5918,-3.5852,-3.5854,-3.5984,-3.5987,-3.5991,-3.6053,0,0,0,0,0,0,-3.5836,-3.5843,-3.5865,-3.5861,-3.5865,-3.5916,-3.5866,-3.5862,-3.5871,-3.5865,-3.5863,-3.5861,-3.5844,-3.5883,-3.5888,-3.592,-3.5855,-3.5981,-3.5985,-3.5989,-3.6048,-3.6058,-3.6067,0,0,0,0,0,-3.5834,-3.5882,-3.5866,-3.5872,-3.5892,-3.5918,-3.5921,-3.5901,-3.5874,-3.5895,-3.5888,-3.5861,-3.5914,-3.5887,-3.5892,-3.5926,-3.5979,-3.5984,-3.5989,-3.6044,-3.6056,-3.6067,0,0,0,0,0,0,-3.5889,-3.5881,-3.5863,-3.5911,-3.5916,-3.5909,-3.5936,-3.5915,-3.5927,-3.5921,-3.5896,-3.5896,-3.5937,-3.5935,-3.5905,-3.5981,-3.5941,-3.5948,-3.5981,-3.5993,-3.6002,-3.6002,-3.5857,0,0,0,0,0,-3.5907,-3.5929,-3.592,-3.5963,-3.5966,-3.5951,-3.5961,-3.5946,-3.595,-3.5951,-3.5946,-3.595,-3.5968,-3.598,-3.5995,-3.6047,-3.6046,-3.6073,-3.6082,-3.609,-3.6096,-3.6124,-3.6136,-3.6009,-3.6009,-3.6009,0,0,-3.5943,-3.5942,-3.5957,-3.5974,-3.5976,-3.5999,-3.5953,-3.5979,-3.5996,-3.5955,-3.599,-3.5987,-3.599,-3.6035,-3.6054,-3.6034,-3.6131,-3.6097,-3.6103,-3.6105,-3.6131,-3.6143,-3.6153,-3.6013,-3.6012,-3.6011,0,0,-3.6022,-3.6023,-3.6059,-3.6062,-3.6066,-3.6056,-3.6064,-3.6061,-3.6058,-3.6093,-3.6062,-3.6082,-3.6112,-3.6116,-3.6122,-3.6203,-3.6179,-3.6208,-3.6258,-3.6285,-3.6295,-3.6304,-3.6333,-3.6344,-3.6214,-3.6214,-3.6215,0,-3.6067,-3.6102,-3.608,-3.6109,-3.6118,-3.6082,-3.6118,-3.6122,-3.613,-3.6137,-3.6114,-3.6152,-3.6152,-3.6197,-3.6217,-3.6223,-3.6232,-3.6209,-3.6296,-3.6304,-3.6312,-3.634,-3.6351,-3.6218,-3.6218,-3.6217,-3.6217,0,-3.6157,-3.6182,-3.621,-3.622,-3.6232,-3.6264,-3.6247,-3.6261,-3.6245,-3.6237,-3.6273,-3.6271,-3.6286,-3.6295,-3.6279,-3.6339,-3.6326,-3.63,-3.626,-3.6328,-3.6354,-3.6364,-3.6223,-3.6222,-3.6221,-3.622,0,0,-3.6271,-3.6269,-3.628,-3.6284,-3.6286,-3.6304,-3.6335,-3.635,-3.6363,-3.637,-3.6395,-3.6422,-3.6398,-3.6404,-3.6388,-3.6412,-3.6477,-3.6383,-3.6383,-3.6401,-3.6543,-3.6564,-3.6576,-3.6461,-3.6463,-3.6464,-3.6543,0,-3.6349,-3.6402,-3.6384,-3.6438,-3.646,-3.6426,-3.6453,-3.6457,-3.645,-3.6468,-3.6459,-3.6479,-3.6446,-3.645,-3.6472,-3.6465,-3.6505,-3.6459,-3.6484,-3.6485,-3.6485,-3.6589,-3.6611,-3.6685,-3.6553,-3.6555,-3.6556,0,-3.6446,-3.6458,-3.6515,-3.6513,-3.6522,-3.6546,-3.6559,-3.6576,-3.6579,-3.6573,-3.6581,-3.656,-3.6589,-3.6549,-3.659,-3.6558,-3.6567,-3.6565,-3.6568,-3.657,-3.6525,-3.6595,-3.6708,-3.672,-3.6571,-3.657,-3.6569,0,-3.6525,-3.6555,-3.6592,-3.6597,-3.6596,-3.6614,-3.6614,-3.6615,-3.6626,-3.6636,-3.6643,-3.6657,-3.6664,-3.6675,-3.6659,-3.6631,-3.6702,-3.666,-3.6697,-3.6698,-3.6714,-3.6713,-3.6832,-3.6719,-3.6719,-3.6719,-3.6719,0,-3.6614,-3.665,-3.6628,-3.6651,-3.6691,-3.6669,-3.6708,-3.6704,-3.6706,-3.6728,-3.6699,-3.672,-3.6696,-3.6715,-3.6701,-3.6738,-3.6741,-3.6736,-3.6733,-3.6739,-3.674,-3.6746,-3.674,-3.6722,-3.6721,-3.6721,-3.672,0,-3.6708,-3.6695,-3.6734,-3.673,-3.673,-3.6759,-3.6755,-3.6776,-3.6767,-3.6795,-3.6801,-3.6787,-3.6807,-3.6791,-3.6811,-3.6802,-3.685,-3.6839,-3.6849,-3.6846,-3.6885,-3.6882,-3.7011,-3.7027,-3.6904,-3.6905,-3.6906,0,-3.6766,-3.6793,-3.6792,-3.6805,-3.6807,-3.6828,-3.6839,-3.6819,-3.6831,-3.6837,-3.6858,-3.6876,-3.6889,-3.6924,-3.6915,-3.693,-3.6919,-3.6963,-3.6921,-3.6927,-3.6921,-3.692,-3.6922,-3.6972,-3.6974,-3.6975,-3.6976,0,-3.6871,-3.6863,-3.688,-3.6895,-3.6908,-3.6919,-3.6927,-3.6939,-3.6918,-3.6933,-3.6954,-3.6965,-3.6985,-3.7004,-3.7016,-3.7016,-3.6993,-3.6989,-3.6999,-3.7006,-3.7012,-3.701,-3.6873,-3.6986,-3.6985,-3.6984,-3.6984,-3.6983,-3.6949,-3.6972,-3.6975,-3.6995,-3.6999,-3.7007,-3.7027,-3.7021,-3.7039,-3.7054,-3.7041,-3.7066,-3.7069,-3.7083,-3.7086,-3.7105,-3.7087,-3.71,-3.7104,-3.7108,-3.7114,-3.7008,-3.7107,-3.7107,-3.7106,-3.7106,-3.7106,0,-3.7053,-3.7053,-3.7072,-3.7084,-3.71,-3.7077,-3.7085,-3.7099,-3.7122,-3.7127,-3.7141,-3.7165,-3.7183,-3.7176,-3.7192,-3.7209,-3.7199,-3.7214,-3.7213,-3.7213,-3.7129,-3.7119,-3.7222,-3.7222,-3.7222,-3.7222,-3.7222,-3.7222,-3.7108,-3.7146,-3.7139,-3.7178,-3.7178,-3.7203,-3.721,-3.7217,-3.7221,-3.725,-3.7265,-3.726,-3.726,-3.7276,-3.7291,-3.7288,-3.7296,-3.7315,-3.7309,-3.723,-3.7219,-3.7208,-3.7199,-3.7317,-3.7317,-3.7391,-3.7392,-3.7393]}]]